Flag for U.S.A. Weather past 2 weeks in Redlands, California, U.S.A.

Now
75 °F

Clear.


Feels Like: 77 °F
Forecast: 71 / 98 °F
Wind: 2 mph from South

Location: Riverside / March Air Force Base

Current Time: Jul 25, 2014 at 2:04:04 AM

Latest Report: Jul 25, 2014 at 12:58 AM


Visibility: 10 mi

Pressure: 29.90 "Hg

Humidity: 39%

Dew point: 48 °F

Location of RedlandsLocation

Historic Weather in Redlands — Graph

°F

Redlands temperature yesterday

Maximum temperature yesterday: 105 °F (at 2:58 PM)
Minimum temperature yesterday: 62 °F (at 5:58 AM)
Average temperature yesterday: 84 °F

Past Weeks' High & Low Weather Summary

 TemperatureHumidityPressure
High105 °F (Jul 24, 2:58 PM)91% (Jul 18, 5:58 AM)30.07 "Hg (Jul 18, 5:58 AM)
Low56 °F (Jul 18, 5:58 AM)9% (Jul 24, 12:58 PM)29.73 "Hg (Jul 24, 5:58 PM)
Average75 °F58%29.95 "Hg
* Reported Jul 10 12:58 AM — Jul 25 12:58 AM, Redlands, Weather by CustomWeather, © 2014

Note: Actual official high and low records may vary slightly from our data, if they occured in-between our weather recording intervals... More about our weather records

Advertising

Redlands weather history for previous 24 hours

 ConditionsComfort  
Time TempWeatherWind HumidityBarometerVisibility
12:58 AM
Jul 25
75 °FClear.2 mph39%29.90 "Hg10 mi
11:58 PM
Jul 24
78 °FClear.No wind38%29.89 "Hg10 mi
10:58 PM79 °FClear.5 mph35%29.87 "Hg10 mi
9:58 PM81 °FClear.6 mph30%29.86 "Hg10 mi
8:58 PM85 °FClear.5 mph29%29.79 "Hg10 mi
7:58 PM89 °FSunny.8 mph26%29.77 "Hg10 mi
6:58 PM95 °FSunny.8 mph17%29.74 "Hg10 mi
5:58 PM98 °FSunny.16 mph14%29.73 "Hg10 mi
4:58 PM102 °FSunny.15 mph17%29.74 "Hg10 mi
3:58 PM104 °FSunny.15 mph14%29.75 "Hg10 mi
2:58 PM105 °FSunny.10 mph9%29.77 "Hg10 mi
1:58 PM103 °FSunny.9 mph10%29.79 "Hg10 mi
12:58 PM102 °FPassing clouds.8 mph9%29.81 "Hg10 mi
11:58 AM100 °FPassing clouds.8 mph12%29.82 "Hg10 mi
10:58 AM95 °FSunny.1 mph14%29.84 "Hg10 mi
9:58 AM90 °FSunny.3 mph19%29.85 "Hg10 mi
8:58 AM84 °FSunny.No wind27%29.87 "Hg10 mi
7:58 AM76 °FSunny.No wind36%29.87 "Hg10 mi
6:58 AM70 °FSunny.No wind44%29.86 "Hg10 mi
5:58 AM62 °FClear.No wind48%29.87 "Hg10 mi
4:58 AM63 °FClear.No wind47%29.85 "Hg10 mi
3:58 AM65 °FClear.No wind48%29.90 "Hg10 mi
2:58 AM66 °FClear.No wind47%29.86 "Hg10 mi
Weather by CustomWeather, © 2014

See weather overviewHow to use our weather pages